Location: PSU-Greenbush Astrophysical Observatory
(37.5140°N, 94.9880°W)
Time: 14:41:13
(UTC-06:00)

Transit 2A - Pass Details

Date: 01 February 2020
Orbit: 599 x 959 km, 66.7° (Epoch: 25 February)

Event Time Altitude Azimuth Distance (km) Brightness Sun altitude
Rises 05:01:02 0° 311° (NW) 3,107 - -28.5°
Reaches altitude 10° 05:04:04 10° 291° (WNW) 2,253 - -27.9°
Maximum altitude 05:07:16 17° 253° (WSW) 1,896 - -27.3°
Drops below altitude 10° 05:10:39 10° 214° (SW) 2,397 - -26.6°
Sets 05:14:03 0° 195° (SSW) 3,400 - -25.9°
Exits shadow 05:14:15 -1° 194° (SSW) 3,469 9.3 -25.9°
